When you browse on this site, cookies collect data to enhance your experience and personalize the content and advertising you see.
Visit our Privacy Policy to learn more. By continuing to use the site, you agree to this use of cookies and data.
  • In Hungary
  • List of Countries
  • For 7 days
  • Water Temperature
  • Weather Map
  • News
  • Weather Widgets
  • user-avatar
    Login

    Hourly Weather Jurmala

    Today, 8 December, Sunday

    Time Temperature Precipitation Wind Pressure Humidity
    00:00 +2°C° 0.1 mm 8 mps 743 mmHg 78%
    01:00 +1°C° 0.1 mm 8 mps 744 mmHg 80%
    02:00 +1°C° 0 mm 8 mps 744 mmHg 80%
    03:00 +2°C° 0.1 mm 7 mps 745 mmHg 79%
    04:00 +2°C° 0.1 mm 7 mps 745 mmHg 78%
    05:00 +2°C° 0.1 mm 7 mps 746 mmHg 77%
    06:00 +2°C° 0 mm 6 mps 746 mmHg 78%
    07:00 +1°C° 0 mm 6 mps 747 mmHg 78%
    08:00 +1°C° 0 mm 6 mps 748 mmHg 77%
    09:00 +1°C° 0 mm 6 mps 748 mmHg 76%
    10:00 +1°C° 0 mm 6 mps 748 mmHg 75%
    11:00 +1°C° 0 mm 6 mps 748 mmHg 74%
    12:00 +2°C° 0 mm 6 mps 747 mmHg 77%
    13:00 +2°C° 0 mm 6 mps 746 mmHg 80%
    14:00 +3°C° 0 mm 6 mps 746 mmHg 82%
    15:00 +3°C° 0.4 mm 7 mps 745 mmHg 84%
    16:00 +3°C° 0.4 mm 7 mps 744 mmHg 86%
    17:00 +4°C° 0.4 mm 8 mps 743 mmHg 87%
    18:00 +4°C° 0.3 mm 8 mps 742 mmHg 86%
    19:00 +4°C° 0.3 mm 8 mps 742 mmHg 86%
    20:00 +5°C° 0.3 mm 8 mps 741 mmHg 85%
    21:00 +5°C° 0.4 mm 8 mps 741 mmHg 85%
    22:00 +5°C° 0.4 mm 8 mps 740 mmHg 86%
    23:00 +5°C° 0.4 mm 8 mps 740 mmHg 86%

    Tomorrow, 9 December, Monday

    Time Temperature Precipitation Wind Pressure Humidity
    00:00 +6°C° 0.3 mm 8 mps 740 mmHg 85%
    01:00 +6°C° 0.3 mm 7 mps 740 mmHg 83%
    02:00 +7°C° 0.3 mm 6 mps 740 mmHg 82%
    03:00 +7°C° 0 mm 6 mps 740 mmHg 81%
    04:00 +5°C° 0 mm 6 mps 740 mmHg 81%
    05:00 +5°C° 0 mm 6 mps 740 mmHg 80%
    06:00 +5°C° 0 mm 6 mps 741 mmHg 80%
    07:00 +5°C° 0 mm 6 mps 741 mmHg 80%
    08:00 +5°C° 0 mm 6 mps 742 mmHg 80%
    09:00 +5°C° 0 mm 6 mps 742 mmHg 78%
    10:00 +5°C° 0 mm 7 mps 743 mmHg 76%
    11:00 +5°C° 0 mm 7 mps 743 mmHg 74%
    12:00 +5°C° 0.1 mm 7 mps 744 mmHg 73%
    13:00 +5°C° 0.1 mm 7 mps 744 mmHg 72%
    14:00 +5°C° 0.1 mm 6 mps 745 mmHg 71%
    15:00 +5°C° 0 mm 6 mps 745 mmHg 73%
    16:00 +4°C° 0 mm 6 mps 745 mmHg 76%
    17:00 +3°C° 0 mm 6 mps 746 mmHg 79%
    18:00 +3°C° 0 mm 6 mps 746 mmHg 80%
    19:00 +3°C° 0 mm 5 mps 747 mmHg 82%
    20:00 +3°C° 0 mm 5 mps 747 mmHg 83%
    21:00 +3°C° 0 mm 5 mps 748 mmHg 84%
    22:00 +2°C° 0 mm 5 mps 748 mmHg 85%
    23:00 +2°C° 0 mm 5 mps 748 mmHg 86%

    Day after tomorrow, 10 December, Tuesday

    Time Temperature Precipitation Wind Pressure Humidity
    00:00 +2°C° 0 mm 5 mps 748 mmHg 86%
    01:00 +2°C° 0 mm 5 mps 749 mmHg 87%
    02:00 +2°C° 0 mm 5 mps 749 mmHg 87%
    03:00 +2°C° 0 mm 5 mps 749 mmHg 88%
    04:00 +2°C° 0 mm 5 mps 749 mmHg 89%
    05:00 +2°C° 0 mm 5 mps 749 mmHg 90%
    06:00 +2°C° 0 mm 5 mps 749 mmHg 90%
    07:00 +2°C° 0 mm 5 mps 750 mmHg 89%
    08:00 +2°C° 0 mm 5 mps 750 mmHg 89%
    09:00 +4°C° 0.1 mm 4 mps 751 mmHg 89%
    10:00 +4°C° 0.1 mm 4 mps 752 mmHg 89%
    11:00 +4°C° 0.1 mm 4 mps 752 mmHg 88%
    12:00 +2°C° 0.3 mm 5 mps 753 mmHg 87%
    13:00 +1°C° 0.3 mm 6 mps 754 mmHg 86%
    14:00 -1°C° 0.3 mm 7 mps 755 mmHg 85%
    15:00 -1°C° 0 mm 7 mps 756 mmHg 80%
    16:00 -1°C° 0 mm 6 mps 757 mmHg 76%
    17:00 0°C° 0 mm 5 mps 758 mmHg 71%
    18:00 0°C° 0 mm 5 mps 759 mmHg 71%
    19:00 -1°C° 0 mm 4 mps 760 mmHg 71%
    20:00 -1°C° 0 mm 4 mps 761 mmHg 71%
    21:00 -1°C° 0 mm 4 mps 762 mmHg 72%
    22:00 0°C° 0 mm 3 mps 762 mmHg 72%
    23:00 0°C° 0 mm 3 mps 763 mmHg 73%

    11 December, Wednesday

    Time Temperature Precipitation Wind Pressure Humidity
    00:00 -1°C° 0 mm 3 mps 763 mmHg 74%
    01:00 -1°C° 0 mm 2 mps 763 mmHg 75%
    02:00 -1°C° 0 mm 2 mps 764 mmHg 76%
    03:00 -1°C° 0 mm 2 mps 764 mmHg 76%
    04:00 -1°C° 0 mm 2 mps 764 mmHg 76%
    05:00 -1°C° 0 mm 3 mps 764 mmHg 75%
    06:00 -1°C° 0 mm 3 mps 764 mmHg 73%
    07:00 -2°C° 0 mm 4 mps 763 mmHg 70%
    08:00 -2°C° 0 mm 5 mps 763 mmHg 67%
    09:00 -2°C° 0 mm 5 mps 763 mmHg 64%
    10:00 -2°C° 0 mm 6 mps 763 mmHg 61%
    11:00 -2°C° 0 mm 7 mps 763 mmHg 57%
    12:00 -2°C° 0 mm 7 mps 762 mmHg 57%
    13:00 -2°C° 0 mm 7 mps 762 mmHg 56%
    14:00 -2°C° 0 mm 7 mps 762 mmHg 55%
    15:00 -2°C° 0 mm 6 mps 761 mmHg 61%
    16:00 -2°C° 0 mm 6 mps 761 mmHg 66%
    17:00 -2°C° 0 mm 6 mps 760 mmHg 71%
    18:00 -2°C° 0 mm 6 mps 760 mmHg 75%
    19:00 -2°C° 0 mm 6 mps 760 mmHg 78%
    20:00 -2°C° 0 mm 6 mps 760 mmHg 82%
    21:00 -2°C° 0 mm 6 mps 759 mmHg 82%
    22:00 -2°C° 0 mm 6 mps 759 mmHg 81%
    23:00 -2°C° 0 mm 6 mps 759 mmHg 81%

    12 December, Thursday

    Time Temperature Precipitation Wind Pressure Humidity
    00:00 -3°C° 0 mm 6 mps 758 mmHg 80%
    01:00 -3°C° 0 mm 6 mps 758 mmHg 80%
    02:00 -3°C° 0 mm 6 mps 758 mmHg 79%
    03:00 -3°C° 0 mm 6 mps 757 mmHg 82%
    04:00 -3°C° 0 mm 6 mps 757 mmHg 84%
    05:00 -4°C° 0 mm 6 mps 757 mmHg 86%
    06:00 -3°C° 0 mm 6 mps 756 mmHg 84%
    07:00 -3°C° 0 mm 7 mps 756 mmHg 82%
    08:00 -3°C° 0 mm 7 mps 755 mmHg 80%
    09:00 -2°C° 0 mm 7 mps 755 mmHg 81%
    10:00 -2°C° 0 mm 7 mps 755 mmHg 82%
    11:00 -1°C° 0 mm 7 mps 754 mmHg 84%
    12:00 -1°C° 0 mm 8 mps 754 mmHg 83%
    13:00 -1°C° 0 mm 8 mps 753 mmHg 82%
    14:00 0°C° 0 mm 8 mps 753 mmHg 81%
    15:00 -1°C° 0 mm 8 mps 753 mmHg 80%
    16:00 -1°C° 0 mm 7 mps 752 mmHg 78%
    17:00 -1°C° 0 mm 7 mps 752 mmHg 76%
    18:00 -1°C° 0 mm 7 mps 752 mmHg 75%
    19:00 -2°C° 0 mm 6 mps 752 mmHg 75%
    20:00 -2°C° 0 mm 6 mps 752 mmHg 75%
    21:00 -2°C° 0 mm 6 mps 752 mmHg 77%
    22:00 -2°C° 0 mm 6 mps 752 mmHg 78%
    23:00 -3°C° 0 mm 6 mps 752 mmHg 79%

    13 December, Friday

    Time Temperature Precipitation Wind Pressure Humidity
    00:00 -3°C° 0 mm 6 mps 751 mmHg 83%
    01:00 -3°C° 0 mm 6 mps 751 mmHg 86%
    02:00 -2°C° 0 mm 6 mps 751 mmHg 90%
    03:00 -2°C° 0 mm 6 mps 751 mmHg 90%
    04:00 -2°C° 0 mm 6 mps 751 mmHg 90%
    05:00 0°C° 0 mm 5 mps 751 mmHg 91%
    06:00 0°C° 0.1 mm 5 mps 751 mmHg 93%
    07:00 -1°C° 0.1 mm 5 mps 750 mmHg 94%
    08:00 -1°C° 0.1 mm 5 mps 750 mmHg 96%
    09:00 -1°C° 0.2 mm 5 mps 750 mmHg 96%
    10:00 -1°C° 0.2 mm 5 mps 750 mmHg 96%
    11:00 -1°C° 0.2 mm 5 mps 750 mmHg 96%
    12:00 -1°C° 0.2 mm 5 mps 749 mmHg 96%
    13:00 0°C° 0.2 mm 5 mps 749 mmHg 96%
    14:00 0°C° 0.2 mm 5 mps 748 mmHg 95%
    15:00 0°C° 0.1 mm 5 mps 748 mmHg 95%
    16:00 0°C° 0.1 mm 5 mps 748 mmHg 95%
    17:00 0°C° 0.1 mm 5 mps 747 mmHg 95%
    18:00 0°C° 0.2 mm 5 mps 747 mmHg 95%
    19:00 0°C° 0.2 mm 5 mps 747 mmHg 95%
    20:00 +1°C° 0.2 mm 6 mps 747 mmHg 96%
    21:00 +1°C° 0.2 mm 6 mps 747 mmHg 95%
    22:00 +1°C° 0.2 mm 6 mps 746 mmHg 93%
    23:00 +1°C° 0.2 mm 6 mps 746 mmHg 92%
    Show more